Weather History for Paducah, KY

Change the Weather History Date:

Sunday, March 23, 2014

  Actual Average Record
Temperature  
Mean Temperature 40 °F 50 °F  
Max Temperature 49 °F 62 °F 81 °F (1987)
Min Temperature 31 °F 40 °F 19 °F (1960)
Degree Days  
Heating Degree Days 25 15  
Month to date heating degree days 498 416  
Since 1 July heating degree days 4153 3712  
Cooling Degree Days 0 0  
Month to date cooling degree days 0 0  
Year to date cooling degree days 0 0  
Moisture  
Dew Point 22 °F    
Average Humidity 48    
Maximum Humidity 64    
Minimum Humidity 31    
Precipitation  
Precipitation 0.00 in 0.13 in 2.78 in (1958)
Month to date precipitation 2.49 2.81  
Year to date precipitation 7.67 10.40  
Snow  
Snow 0.00 in 0.00 in T in (2008)
Month to date snowfall 5.4 0.6  
Since 1 July snowfall 18.3 9.1  
Snow Depth 0.00 in    
Sea Level Pressure  
Sea Level Pressure 30.32 in    
Wind  
Wind Speed 12 mph (North)    
Max Wind Speed 22 mph    
Max Gust Speed 31 mph    
Visibility 10 miles    
Events      
T = Trace of Precipitation, MM = Missing Value Source: NWS Daily Summary

Daily Weather History Graph

Daily Weather History Graph

Search for Another Location

Airport:

Trip Planner

Search our weather history database for the weather conditions in past years. The results will help you decide how hot, cold, wet, or windy it might be!

Date:

Astronomy

Mar. 23, 2014 Rise Set
Actual Time 6:54 AM CDT 7:09 PM CDT
Civil Twilight 6:28 AM CDT 7:35 PM CDT
Nautical Twilight 5:57 AM CDT 8:06 PM CDT
Astronomical Twilight 5:26 AM CDT 8:37 PM CDT
Moon 1:19 AM CDT (3/23) 11:42 AM CDT (3/23)
Length of Visible Light 13h 07m
Length of Day
12h 15m
Waning Gibbous, 54% of the Moon is Illuminated
Mar 23
Waning Gibbous
Mar 23
Last Quarter
Mar 30
New
Apr 7
First Quarter
Apr 15
Full

Hourly Weather History & Observations

Time (CDT) Temp. Windchill Dew Point Humidity Pressure Visibility Wind Dir Wind Speed Gust Speed Precip Events Conditions
12:53 AM 43.0 °F 36.8 °F 30.0 °F 60% 30.24 in 10.0 mi North 11.5 mph - N/A   Overcast
1:53 AM 42.1 °F 34.9 °F 28.9 °F 60% 30.23 in 10.0 mi NNE 13.8 mph - N/A   Scattered Clouds
2:53 AM 41.0 °F 33.1 °F 28.0 °F 60% 30.24 in 10.0 mi NNE 15.0 mph - N/A   Clear
3:53 AM 41.0 °F 33.5 °F 28.9 °F 62% 30.24 in 10.0 mi North 13.8 mph 21.9 mph N/A   Overcast
4:53 AM 39.0 °F 31.4 °F 28.0 °F 65% 30.25 in 10.0 mi North 12.7 mph - N/A   Partly Cloudy
5:53 AM 37.0 °F 29.8 °F 25.0 °F 62% 30.29 in 10.0 mi NNE 10.4 mph - N/A   Clear
6:53 AM 37.0 °F 28.1 °F 25.0 °F 62% 30.31 in 10.0 mi NNE 15.0 mph - N/A   Clear
7:53 AM 37.9 °F 29.6 °F 25.0 °F 60% 30.35 in 10.0 mi North 13.8 mph - N/A   Clear
8:53 AM 37.9 °F 28.9 °F 21.0 °F 51% 30.36 in 10.0 mi North 16.1 mph - N/A   Clear
9:53 AM 41.0 °F 33.5 °F 21.0 °F 45% 30.35 in 10.0 mi NNE 13.8 mph - N/A   Mostly Cloudy
10:53 AM 42.1 °F 35.2 °F 21.9 °F 45% 30.37 in 10.0 mi North 12.7 mph - N/A   Clear
11:53 AM 45.0 °F 38.5 °F 21.9 °F 40% 30.37 in 10.0 mi NNE 13.8 mph - N/A   Clear
12:53 PM 46.9 °F - 21.9 °F 37% 30.36 in 10.0 mi North 11.5 mph 19.6 mph N/A   Clear
1:53 PM 48.0 °F - 21.9 °F 36% 30.34 in 10.0 mi North 16.1 mph 23.0 mph N/A   Clear
2:53 PM 48.9 °F - 21.9 °F 35% 30.33 in 10.0 mi NNE 15.0 mph 20.7 mph N/A   Clear
3:53 PM 48.9 °F - 19.0 °F 31% 30.31 in 10.0 mi North 13.8 mph - N/A   Clear
4:53 PM 48.0 °F - 19.0 °F 32% 30.31 in 10.0 mi NNW 15.0 mph 23.0 mph N/A   Clear
5:53 PM 46.9 °F - 17.1 °F 30% 30.31 in 10.0 mi North 11.5 mph - N/A   Clear
6:53 PM 43.0 °F 36.4 °F 18.0 °F 37% 30.32 in 9.0 mi North 12.7 mph - N/A   Clear
7:53 PM 39.9 °F 33.4 °F 17.1 °F 40% 30.32 in 10.0 mi North 10.4 mph - N/A   Clear
8:53 PM 37.0 °F 31.6 °F 17.1 °F 44% 30.35 in 10.0 mi North 6.9 mph - N/A   Clear
9:53 PM 37.0 °F 30.4 °F 16.0 °F 42% 30.36 in 10.0 mi North 9.2 mph - N/A   Clear
10:53 PM 34.0 °F 28.0 °F 17.1 °F 50% 30.36 in 10.0 mi North 6.9 mph - N/A   Clear
11:53 PM 33.1 °F 28.7 °F 17.1 °F 52% 30.36 in 10.0 mi NNE 4.6 mph - N/A   Clear